Flag for Canada Weather past 2 weeks in Medicine Hat, Alberta, Canada

Now
68 °F

Passing clouds.


Feels Like: 68 °F
Forecast: 42 / 79 °F
Wind: 6 mph from Southwest

Location: Medicine Hat

Current Time: Sep 16, 2014 at 12:08:22 PM

Latest Report: Sep 16, 2014 at 11:00 AM


Visibility: 30 mi

Pressure: 29.94 "Hg

Humidity: 49%

Dew point: 48 °F

Location of Medicine HatLocation

Historic Weather in Medicine Hat — Graph

°F

Medicine Hat temperature yesterday

Maximum temperature yesterday: 75 °F (at 2:00 PM)
Minimum temperature yesterday: 37 °F (at 4:00 AM)
Average temperature yesterday: 56 °F

Past Weeks' High & Low Weather Summary

 TemperatureHumidityPressure
High82 °F (Sep 7, 3:00 PM)100% (Sep 2, 5:00 AM)30.65 "Hg (Sep 2, 5:00 AM)
Low34 °F (Sep 9, 12:57 AM)25% (Sep 15, 2:00 PM)29.66 "Hg (Sep 7, 7:00 PM)
Average52 °F73%30.09 "Hg
* Reported Sep 1 11:00 AM — Sep 16 11:00 AM, Medicine Hat, Weather by CustomWeather, © 2014

Note: Actual official high and low records may vary slightly from our data, if they occured in-between our weather recording intervals... More about our weather records

Advertising

Medicine Hat weather history for previous 24 hours

 ConditionsComfort  
Time TempWeatherWind HumidityBarometerVisibility
11:00 AM
Sep 16
68 °FPassing clouds.6 mph49%29.94 "Hg30 mi
10:00 AM59 °FPassing clouds.5 mph68%29.96 "Hg30 mi
9:00 AM50 °FPassing clouds.2 mph82%29.97 "Hg30 mi
8:00 AM45 °FPassing clouds.3 mph87%29.98 "Hg30 mi
7:00 AM41 °FPassing clouds.5 mph93%29.97 "Hg30 mi
6:00 AM43 °FClear.5 mph93%29.96 "Hg9 mi
5:00 AM43 °FClear.6 mph93%29.96 "Hg9 mi
4:00 AM45 °FClear.2 mph87%29.96 "Hg9 mi
3:00 AM48 °FClear.3 mph82%29.95 "Hg9 mi
2:00 AM48 °FClear.3 mph82%29.96 "Hg9 mi
1:00 AM50 °FClear.2 mph76%29.96 "Hg9 mi
12:00 AM48 °FClear.5 mph82%29.96 "Hg9 mi
11:00 PM
Sep 15
52 °FClear.6 mph72%29.96 "Hg9 mi
10:00 PM55 °FClear.2 mph67%29.97 "Hg9 mi
9:00 PM61 °FClear.7 mph59%29.98 "Hg15 mi
8:00 PM64 °FSunny.5 mph49%29.97 "Hg30 mi
7:00 PM72 °FSunny.6 mph36%29.97 "Hg30 mi
6:00 PM75 °FSunny.2 mph27%29.98 "Hg30 mi
5:00 PM75 °FSunny.6 mph31%29.98 "Hg30 mi
4:00 PM75 °FSunny.10 mph29%29.99 "Hg30 mi
3:00 PM75 °FSunny.12 mph27%30.01 "Hg30 mi
2:00 PM75 °FSunny.9 mph25%30.02 "Hg30 mi
1:00 PM73 °FSunny.9 mph27%30.04 "Hg30 mi
12:00 PM72 °FSunny.6 mph31%30.05 "Hg30 mi
Weather by CustomWeather, © 2014

See weather overviewHow to use our weather pages